{"data":{"norad_id":58942,"epoch":"2026-05-25T04:43:12.892800Z","epoch_age_seconds":58376,"freshness":"FRESH","line1":"1 58942U 24027M   26145.19667700  .00003169  00000+0  11387-3 0  9998","line2":"2 58942  53.1606 314.1304 0001355  89.6009 270.5148 15.31691068129046","mean_motion":15.31691068,"eccentricity":0.0001355,"inclination_deg":53.1606,"raan_deg":314.1304,"arg_perigee_deg":89.6009,"mean_anomaly_deg":270.5148,"bstar":0.00011387,"rev_number":12904,"period_min":94.013736195529,"perigee_km":469.83859474158,"apogee_km":471.69464762293,"semimajor_km":6848.9036211823,"source":"CELESTRAK","updated_at":"2026-05-25T13:38:18.790488Z"}}